Wind_Speed
29 28 27 26 26 25 25 24 24 23 23 22 23 23 23 23 22 22 23 23 23 23 23 23 24 24 24 26 30 33 34 33 30 29 30 32 32 32 30 29 28 29 29 29 29 30 30 31 31 30 30 31 31 31 30 30 30 30 31 31 30 30 29 29 28 28 27 26 25
29 28 27 26 25 24 24 23 23 23 22 22 22 23 23 23 22 22 22 22 22 22 22 23 23 24 25 26 28 31 32 32 31 30 30 32 32 31 30 30 29 29 30 30 30 30 31 31 30 29 29 29 30 31 31 31 31 31 31 32 31 30 29 29 29 29 28 27 26
29 28 27 26 25 24 23 23 23 23 22 21 21 22 23 22 22 22 22 22 22 21 21 22 22 23 24 25 27 29 31 32 32 31 31 31 31 31 30 29 29 29 30 30 31 31 31 31 30 29 28 28 30 30 31 32 32 32 32 33 31 29 29 29 28 28 27 27 27
29 28 28 27 26 25 24 24 24 23 22 21 21 22 22 22 22 21 21 22 22 21 21 21 22 23 24 25 26 28 30 31 32 32 31 31 31 31 30 29 29 30 30 30 32 32 31 31 30 29 28 28 29 30 31 31 32 32 32 32 31 30 29 28 28 27 27 27 27
28 28 28 27 27 26 25 24 24 24 23 21 20 21 22 22 21 21 21 21 22 22 21 21 21 23 24 25 27 29 30 31 32 33 32 32 32 32 30 29 30 30 30 31 32 32 32 32 31 30 28 27 28 29 30 31 32 32 31 31 31 30 28 27 26 27 27 27 28
27 28 28 27 27 27 26 25 25 24 23 21 20 21 21 22 22 22 21 22 22 22 22 21 21 22 23 25 27 29 31 31 32 33 33 33 33 33 31 30 30 30 30 31 32 33 33 33 31 30 29 28 27 28 29 30 30 31 30 30 29 29 28 26 26 26 27 28 28
26 27 27 27 27 27 26 25 25 24 23 21 21 22 22 22 22 22 22 22 21 21 22 21 21 22 23 24 26 29 31 31 33 33 33 33 34 34 33 31 30 30 31 31 32 33 33 34 31 30 30 29 28 28 29 28 29 29 29 28 28 29 29 27 27 28 28 29 29
26 27 27 27 27 27 26 26 25 24 23 22 21 22 23 23 23 23 23 22 21 22 22 22 21 21 22 23 25 27 30 31 32 33 33 33 33 33 33 31 30 30 31 31 32 33 34 34 32 30 29 30 28 27 27 27 27 28 28 28 28 29 29 29 29 29 30 30 30
25 26 27 27 27 26 26 26 25 24 23 22 21 22 23 23 24 24 23 22 22 23 23 22 21 20 21 23 24 26 28 29 31 32 32 32 33 33 32 30 30 30 30 30 32 33 33 33 32 30 29 30 28 27 27 27 27 27 28 28 27 28 30 30 30 30 30 31 30
23 25 26 26 26 26 26 26 25 25 23 22 21 21 22 23 24 24 24 23 23 23 24 23 21 20 21 23 24 25 26 27 29 30 31 32 32 33 32 30 30 30 30 30 31 33 33 33 31 30 29 28 28 28 27 27 28 28 27 27 26 27 28 30 31 31 31 31 31
22 24 25 25 25 25 25 25 25 24 23 22 21 21 21 22 23 23 23 23 23 24 25 24 22 20 21 23 24 25 26 26 27 29 30 31 32 33 32 30 30 30 30 30 31 32 33 32 31 30 29 28 27 27 27 28 28 28 27 27 25 26 27 29 30 31 31 32 32
23 24 25 25 25 25 25 25 25 24 23 22 21 21 21 21 22 22 22 23 24 25 25 25 23 22 21 22 24 25 26 26 28 29 30 31 32 33 33 31 30 29 30 31 31 32 32 32 31 30 29 28 27 27 27 28 28 29 28 28 26 25 26 27 28 29 30 31 31
25 25 25 25 25 25 25 25 25 24 23 23 22 21 21 21 22 22 22 23 24 24 24 24 23 23 22 22 24 25 26 26 28 29 30 31 32 34 34 32 31 30 30 31 32 33 32 32 31 31 30 28 27 27 27 28 29 29 29 28 27 27 26 26 27 28 29 30 30
27 26 26 25 25 25 25 25 24 24 23 23 23 22 21 21 22 22 22 23 23 22 22 22 23 23 23 23 24 25 26 26 28 29 30 30 31 33 34 33 32 31 31 32 33 34 32 31 31 30 30 29 28 27 27 28 29 29 29 29 29 29 28 28 27 27 28 28 28
27 26 26 25 25 24 24 24 24 24 23 23 23 22 22 21 22 22 22 22 21 20 20 21 22 23 23 22 23 24 26 27 28 29 29 29 30 32 33 34 33 32 31 32 33 34 33 31 30 30 30 29 28 28 28 28 28 29 29 29 30 30 30 29 28 27 27 27 27
26 25 25 25 24 24 24 24 23 22 22 22 23 23 22 21 21 21 21 21 20 19 20 21 22 23 23 22 22 23 25 26 27 28 28 28 29 31 33 33 33 32 31 31 32 33 32 31 30 30 30 29 28 28 28 28 29 29 29 30 31 31 31 30 29 27 27 27 27
24 24 23 23 23 23 23 23 22 21 21 22 22 23 22 21 20 20 20 20 19 19 21 23 23 22 21 22 22 23 24 25 26 26 27 27 28 30 32 32 32 31 30 30 30 31 31 31 30 30 30 29 29 28 28 29 29 29 29 29 30 30 30 30 29 28 28 28 28
22 22 22 22 23 23 22 22 21 20 21 21 22 22 22 21 20 20 20 19 18 19 22 23 23 21 21 22 22 22 23 24 25 25 25 25 27 28 30 31 31 30 30 29 29 29 30 30 30 30 29 29 29 28 28 29 29 29 29 29 29 28 29 29 29 29 29 28 29
20 20 21 21 22 22 22 22 21 21 20 21 21 22 21 20 20 20 20 19 19 21 22 22 21 20 21 22 22 21 21 23 24 25 25 25 25 26 28 29 30 30 30 29 29 29 29 29 30 30 29 29 29 28 28 28 28 28 28 28 28 27 27 28 29 29 30 29 29
20 20 20 21 21 21 22 22 21 21 20 21 22 21 20 19 20 20 20 20 21 21 21 21 20 20 20 21 21 21 20 21 23 25 26 26 26 26 26 27 28 30 31 30 30 29 29 29 30 30 30 29 29 28 27 26 26 26 27 27 27 27 27 28 28 29 29 29 28
20 20 20 21 21 21 21 21 21 21 21 21 22 21 20 19 20 21 22 22 23 22 21 21 21 20 20 21 21 21 20 20 22 24 25 26 27 26 25 25 27 29 31 31 30 30 30 30 30 30 30 29 28 27 26 25 24 24 25 25 26 27 27 27 28 28 28 28 28
21 20 21 21 20 20 21 21 21 21 22 22 23 22 20 20 20 22 24 24 23 22 21 21 21 21 21 22 21 21 20 20 21 22 23 24 26 27 26 25 24 26 28 30 30 30 30 30 29 29 28 27 26 25 24 23 23 23 23 24 24 25 26 27 27 27 28 28 28
22 21 21 21 21 21 21 21 21 22 23 23 23 23 22 21 21 23 24 24 23 22 22 21 20 21 22 22 22 21 21 20 20 19 20 21 24 26 26 25 22 22 23 26 27 28 28 28 27 26 25 25 24 24 23 23 22 22 22 22 23 23 25 26 27 27 28 28 28
22 22 21 20 21 21 21 22 22 22 23 24 24 24 23 22 22 23 24 23 23 22 21 20 20 20 22 22 21 21 21 20 19 18 17 19 21 23 24 22 20 19 20 22 24 25 26 26 25 24 24 23 23 23 22 22 22 21 21 21 21 22 23 24 26 27 28 27 27
20 21 21 20 21 22 22 22 23 23 23 24 24 24 24 23 22 23 23 24 23 23 22 20 20 20 21 21 21 20 20 20 19 18 17 17 18 19 20 19 18 18 19 21 22 24 24 25 24 23 23 23 22 22 21 21 21 21 21 21 21 21 22 23 24 26 27 27 26
19 17 19 19 21 22 23 23 24 24 24 24 24 24 24 23 23 24 24 24 24 24 22 21 20 20 20 20 19 19 19 18 18 17 17 16 17 17 17 16 17 18 19 20 21 21 22 23 23 23 23 22 22 21 20 20 20 20 21 21 22 22 22 22 23 25 26 27 26
22 18 16 18 20 22 24 24 25 25 24 24 25 25 25 24 24 24 25 25 24 24 23 22 21 20 20 18 18 18 18 17 16 16 18 18 18 16 15 15 16 17 18 19 19 19 20 21 22 22 22 21 21 20 20 19 20 21 21 22 22 22 22 22 23 24 25 26 26
25 22 20 21 22 23 24 25 25 24 24 25 25 25 25 24 24 24 25 24 24 24 23 22 21 20 19 18 18 19 18 17 17 17 18 18 17 16 14 14 14 16 17 18 18 18 19 19 20 20 21 21 20 19 19 18 19 19 20 21 21 22 23 23 23 23 24 25 26
27 26 25 25 24 24 23 24 24 24 24 26 26 25 24 24 24 24 24 24 24 23 22 20 20 20 19 19 19 19 18 18 18 18 17 17 16 15 14 13 13 15 16 17 17 17 18 18 19 19 20 19 18 16 14 13 12 12 11 10 10 10 12 14 17 18 20 22 25
28 29 28 26 24 23 22 22 23 24 25 26 26 25 24 24 25 25 25 24 24 22 21 21 21 20 20 20 20 19 19 19 18 18 17 17 16 15 13 12 13 15 16 16 16 17 17 19 19 20 20 19 15 12 12 12 12 11 11 10 9 8 8 7 5 5 8 12 17
28 29 27 24 21 21 22 23 24 25 26 25 24 24 25 26 26 26 25 24 23 22 22 22 22 21 20 20 21 20 19 19 18 18 17 15 13 12 12 13 15 16 17 16 17 18 19 20 20 20 20 19 15 12 12 14 15 15 15 15 14 13 11 10 9 7 6 6 8
28 29 26 20 18 19 21 23 25 25 25 24 23 24 26 27 26 25 23 23 23 24 24 23 22 21 20 20 18 17 15 12 13 15 16 15 14 15 15 16 16 17 17 18 18 19 20 20 20 20 20 19 17 16 16 17 18 19 19 18 17 16 15 14 13 12 10 9 8
27 28 25 20 17 19 21 24 24 24 24 23 23 25 25 25 24 22 21 22 23 23 22 22 21 19 17 15 14 16 17 18 19 21 22 21 20 19 20 19 18 17 17 19 19 20 20 21 21 21 21 21 21 21 21 21 22 22 22 22 21 21 19 18 17 16 15 13 14
26 27 25 22 21 21 23 24 23 23 23 23 23 23 21 20 19 19 19 20 21 21 19 18 19 19 20 21 24 26 28 28 27 27 26 25 24 24 24 24 23 21 20 20 20 20 20 21 22 23 24 25 25 25 25 26 26 26 26 26 25 24 22 20 20 19 18 18 18
24 26 25 24 24 24 24 23 23 22 23 23 21 18 17 19 20 22 25 28 29 29 29 30 31 31 31 30 29 29 29 30 29 29 29 28 28 29 29 28 27 26 24 23 22 21 22 23 24 25 26 27 28 28 29 29 29 29 29 29 28 27 25 24 23 22 22 22 22
22 25 25 25 26 26 25 23 23 23 22 19 17 18 22 25 27 29 32 35 35 35 35 35 35 34 33 32 30 30 30 30 30 30 30 31 32 32 32 29 28 28 28 28 26 25 24 24 25 25 26 28 29 30 31 31 32 32 32 32 32 32 31 30 29 28 26 25 25
20 23 26 26 27 27 25 24 23 22 18 16 21 25 28 29 29 31 33 35 35 35 34 33 33 32 32 32 31 30 31 31 31 31 31 31 32 33 32 29 28 28 29 30 30 29 28 27 26 26 27 29 31 32 32 32 32 33 34 33 34 35 34 33 32 31 29 28 27
18 22 26 27 27 26 26 25 24 19 17 22 27 29 30 30 30 31 33 35 35 34 33 32 32 32 33 34 33 32 32 32 32 32 31 31 31 32 31 30 28 28 28 30 30 31 30 29 28 28 29 31 32 33 32 32 32 32 33 33 34 34 34 34 33 33 32 30 29
17 21 26 29 28 27 27 25 22 19 23 28 30 30 31 31 31 31 33 35 35 35 33 32 31 33 35 36 36 35 34 33 33 33 32 31 31 31 32 31 30 28 28 29 30 31 31 31 31 31 32 33 33 34 33 32 32 32 32 33 33 33 33 34 34 34 34 32 31
16 19 25 29 30 28 26 25 22 25 30 31 32 32 32 33 33 34 35 36 36 36 35 33 33 34 36 38 39 37 36 35 34 34 33 32 33 33 33 32 31 30 29 29 30 31 31 32 32 32 33 33 34 34 34 33 33 32 31 30 31 31 32 33 33 34 34 34 33
16 19 24 29 31 27 21 22 26 31 33 33 33 33 33 34 35 35 36 36 36 35 35 34 34 36 37 38 39 38 37 36 35 35 35 34 34 34 34 33 32 31 30 30 30 31 31 32 32 32 33 32 33 33 33 33 32 31 30 29 29 30 30 31 32 33 33 34 33
Wind_Direction
204 204 204 204 204 206 207 209 210 210 207 201 196 193 192 192 192 193 195 197 199 199 199 198 198 198 198 197 196 196 195 194 192 192 191 190 190 190 192 192 192 190 189 188 188 188 188 188 188 188 190 191 192 192 193 193 193 193 192 192 192 193 193 193 193 193 192 191 192
204 203 202 202 202 203 205 208 210 211 209 203 196 192 191 191 191 192 194 196 198 198 198 198 198 198 198 197 197 196 195 194 192 192 191 191 190 190 191 192 192 191 190 188 188 189 189 189 188 188 189 190 191 193 194 196 195 194 194 194 194 194 194 195 195 195 194 194 194
203 202 201 200 200 201 203 206 208 210 209 203 195 191 190 190 191 192 193 196 197 197 196 196 195 195 195 195 195 196 196 195 193 192 191 190 190 190 191 191 191 191 190 189 189 190 190 189 189 189 189 189 191 192 194 196 197 196 196 196 196 195 195 196 196 196 196 197 197
202 200 199 198 198 199 201 203 206 208 207 203 195 190 188 189 190 191 192 194 196 197 196 194 193 193 194 194 193 194 195 196 194 192 191 190 190 190 190 190 190 190 190 190 190 190 190 190 190 190 190 190 190 192 194 195 196 196 196 197 197 196 196 196 196 197 198 199 201
201 199 198 197 197 198 199 202 204 206 206 202 193 188 187 187 188 190 191 193 195 196 196 194 192 192 193 193 192 192 194 195 194 193 191 190 190 190 190 190 190 190 190 190 191 191 191 191 191 192 192 191 191 192 193 194 195 196 196 197 197 197 197 197 198 199 200 202 203
200 198 197 196 196 197 198 200 202 204 204 200 193 188 185 185 186 188 189 191 193 194 195 193 191 191 190 190 189 189 191 193 193 192 191 190 190 190 190 190 190 190 190 190 191 192 192 191 192 193 194 194 194 194 193 193 193 194 195 197 198 199 199 199 200 202 203 203 203
199 197 196 195 195 195 197 198 201 202 203 200 194 188 185 185 185 187 188 189 190 191 192 192 191 190 188 187 185 186 188 189 190 191 191 190 189 189 190 190 190 190 190 191 191 191 192 192 193 194 195 196 196 196 195 193 192 193 194 197 199 201 201 201 203 203 202 203 202
199 197 195 195 194 194 195 197 199 200 201 200 194 189 185 184 185 186 186 187 187 188 189 190 190 190 188 185 183 184 186 188 189 189 189 188 187 188 190 190 190 190 190 190 191 191 191 192 193 194 195 196 196 196 195 193 192 193 194 196 199 201 202 202 203 203 202 202 201
198 196 194 194 193 194 194 195 197 199 199 199 195 190 185 184 184 185 185 186 186 186 187 189 191 191 189 184 181 182 184 186 186 187 188 188 188 188 189 189 189 189 190 190 190 191 191 192 194 195 195 196 195 195 195 194 194 194 194 195 197 199 201 203 203 202 202 201 201
195 193 192 192 192 193 194 195 196 198 198 198 196 191 186 184 184 184 185 185 185 186 187 189 191 193 190 185 181 181 183 184 185 187 188 189 188 188 188 189 190 190 189 189 190 191 191 192 194 195 195 195 195 195 195 195 195 195 195 195 196 197 199 201 202 202 202 202 201
194 191 191 191 191 192 193 195 196 197 197 196 193 189 186 185 185 185 184 184 184 185 187 190 192 194 193 188 183 181 182 184 185 186 187 189 189 189 189 191 192 192 191 190 190 191 191 193 194 195 194 194 194 194 194 195 195 196 196 197 196 196 197 199 201 202 203 203 204
197 192 191 190 191 191 193 194 195 196 195 192 190 188 185 184 185 185 183 182 182 184 187 190 193 195 195 191 186 183 182 183 184 185 186 188 189 190 191 192 193 193 193 192 191 191 191 192 193 192 193 194 193 193 194 195 196 197 199 199 199 198 198 200 201 202 203 204 205
199 192 190 190 190 191 192 193 194 194 192 189 188 186 185 184 184 183 181 179 180 182 185 188 192 196 197 193 188 185 183 183 183 184 185 186 188 190 191 193 194 194 194 194 193 192 191 191 191 191 190 191 193 193 194 195 197 198 200 202 202 203 202 202 202 202 203 204 205
197 191 188 188 189 190 191 192 193 192 191 188 187 186 185 185 185 183 179 176 176 178 181 186 191 196 197 195 191 187 184 182 182 182 183 184 187 189 192 194 195 195 194 194 193 192 191 190 190 190 189 190 191 193 194 196 198 199 201 202 204 206 206 205 204 202 202 202 204
198 190 187 186 187 189 190 192 193 192 190 188 186 186 185 184 185 183 179 175 173 175 179 184 190 195 196 195 192 189 185 183 181 180 181 182 186 189 192 194 194 194 192 191 191 191 190 190 189 190 190 191 192 194 196 197 199 200 202 204 205 207 207 207 205 203 201 201 202
200 191 186 184 185 187 189 192 194 193 190 187 186 185 185 184 184 182 179 174 172 174 180 186 189 192 193 193 191 189 187 185 182 179 178 181 185 189 192 193 193 191 189 187 187 188 189 190 190 191 191 192 193 195 196 198 200 202 204 205 206 207 207 207 205 204 204 204 205
202 191 186 184 183 185 187 191 193 193 191 187 186 186 186 184 183 181 178 173 170 175 183 187 187 187 189 190 189 189 188 188 186 181 179 180 185 188 191 191 190 188 185 184 184 186 189 191 192 193 194 194 195 196 197 199 201 203 205 206 206 207 206 206 205 205 206 208 209
205 191 186 183 182 182 185 189 192 193 191 188 187 188 187 184 181 179 176 173 173 179 184 185 183 183 185 187 188 188 188 187 186 184 182 183 185 187 189 189 188 186 185 184 185 187 189 191 193 195 195 196 197 198 199 200 202 203 205 206 207 206 206 206 206 207 209 210 210
211 194 187 183 181 181 184 187 191 192 191 189 189 189 187 183 179 176 174 175 179 184 184 180 178 180 184 187 188 188 186 185 185 186 187 187 188 188 188 188 187 186 185 186 188 189 190 192 193 195 196 196 198 199 200 201 202 203 205 206 207 207 207 207 208 209 210 211 211
217 196 187 184 183 182 184 187 190 192 192 191 191 190 186 180 176 174 175 178 183 184 181 176 176 179 183 186 187 187 186 185 188 190 191 192 191 189 187 186 185 185 186 188 190 191 192 192 193 194 196 197 198 200 201 201 202 203 205 206 207 208 208 209 210 211 212 212 211
222 198 187 186 185 185 186 188 190 192 192 193 193 191 186 179 174 174 177 181 184 182 178 175 177 179 182 184 186 187 187 187 191 194 195 194 192 190 187 185 182 183 186 189 191 192 193 193 193 194 195 197 199 200 200 200 200 202 204 205 207 209 210 211 212 212 213 213 212
227 203 189 187 186 186 187 189 191 193 194 194 194 192 188 181 176 178 181 183 182 179 176 176 178 180 181 182 184 184 184 187 192 197 197 193 189 187 187 186 184 184 185 188 190 191 192 192 193 193 194 196 197 199 199 199 199 201 203 205 207 209 211 213 214 215 215 215 214
229 207 192 188 186 187 189 191 193 194 195 195 194 193 190 185 180 181 185 187 182 177 175 177 180 181 181 181 181 181 182 185 191 194 194 189 185 185 186 188 189 188 187 188 188 188 189 189 190 191 192 193 195 197 198 199 199 200 202 204 206 209 212 215 217 218 218 218 216
229 207 192 187 186 187 190 192 194 194 194 193 193 193 191 186 182 183 188 189 182 176 174 177 180 181 181 180 178 178 180 184 188 190 188 182 182 183 185 187 189 189 187 185 183 183 183 184 185 187 189 191 193 195 196 198 200 201 203 205 207 210 213 217 219 220 220 218 215
236 209 192 185 184 186 190 192 193 194 193 192 191 191 189 185 183 185 188 187 180 174 173 175 178 180 180 177 175 175 179 185 191 192 187 179 175 176 179 182 181 178 175 174 176 178 179 180 181 183 186 189 191 193 195 198 202 205 207 209 210 212 215 218 220 221 220 217 214
261 224 196 184 183 186 190 193 194 195 194 192 190 188 186 184 186 189 189 184 178 173 171 172 175 176 174 171 168 171 178 187 192 188 177 167 159 160 166 170 169 167 167 170 173 176 179 181 182 183 185 187 189 192 195 200 205 209 212 213 214 215 217 218 220 221 219 217 214
279 255 218 194 188 188 191 193 195 195 194 193 193 190 186 184 189 192 189 183 175 170 168 169 171 170 166 161 161 166 175 183 181 170 159 152 150 151 155 159 162 167 171 175 178 181 183 185 186 187 187 188 191 194 197 202 207 211 214 215 216 218 219 219 219 219 217 215 213
276 263 241 216 199 192 191 193 195 195 195 197 196 190 186 187 191 192 189 182 173 167 166 166 164 160 157 154 157 163 168 169 162 154 150 150 151 154 156 159 165 172 179 182 184 186 188 190 191 191 191 191 193 196 201 206 210 214 218 221 224 224 222 221 220 218 216 213 213
269 259 243 222 205 193 189 191 194 196 197 198 195 190 187 190 192 191 185 178 170 164 161 157 152 149 148 150 156 161 162 158 154 153 154 155 157 161 164 165 169 175 182 185 188 189 191 192 193 194 194 194 193 195 199 201 202 203 206 210 215 219 220 221 222 220 215 211 210
266 258 244 224 204 190 186 191 194 197 198 198 194 189 189 192 192 188 181 174 166 159 151 144 141 141 143 149 155 158 157 154 155 156 157 160 164 169 174 177 171 171 175 181 186 188 189 191 191 190 187 181 168 149 133 128 126 122 113 103 97 94 96 104 126 170 192 198 203
262 258 247 226 201 186 186 193 197 198 197 195 191 189 191 193 191 185 176 166 156 146 140 137 136 137 143 151 156 156 156 157 159 158 157 159 153 146 148 160 164 166 168 173 178 180 181 180 179 178 177 173 160 136 116 109 107 103 97 91 88 87 88 88 87 91 106 145 177
261 258 250 230 203 188 189 197 200 199 196 193 191 192 193 192 186 176 163 151 140 135 134 135 137 141 147 154 158 157 155 151 149 145 140 135 126 120 126 140 150 158 164 168 171 172 171 168 166 165 165 161 148 130 116 109 102 98 94 90 88 87 87 87 87 91 99 113 132
260 257 250 235 214 200 198 202 202 199 195 194 195 195 192 184 173 161 148 136 130 128 130 135 140 144 144 140 131 123 117 112 108 111 116 120 117 113 112 115 122 138 155 164 167 166 163 160 157 154 150 143 133 123 115 109 101 95 91 88 87 86 87 87 87 88 92 103 114
258 253 246 235 221 211 207 206 202 197 195 195 196 192 181 166 155 144 132 120 116 113 112 115 119 116 108 101 97 96 98 100 100 103 107 111 111 108 103 100 105 118 136 151 158 159 156 153 150 145 139 130 121 115 109 104 99 93 89 86 85 84 84 85 86 88 91 97 104
255 248 241 231 221 215 210 206 201 197 196 195 189 171 147 130 119 111 105 101 100 97 94 93 95 96 95 95 94 93 93 93 94 96 100 103 104 102 99 96 100 109 121 133 142 147 148 146 144 140 132 123 114 109 105 100 95 91 88 86 83 82 82 82 84 86 89 93 98
257 246 237 228 219 214 210 205 200 197 195 186 162 130 111 105 102 101 100 100 99 96 92 91 92 92 92 90 88 88 89 90 90 91 93 97 99 98 95 94 96 102 111 119 127 133 137 140 140 137 129 120 112 107 102 98 93 90 87 84 82 80 80 80 81 83 86 89 93
265 249 236 225 217 212 208 203 199 195 183 152 124 111 104 101 99 100 101 102 100 95 92 91 90 90 90 89 87 86 87 89 90 90 90 92 95 95 95 93 93 97 104 110 117 123 128 131 134 133 127 118 111 106 101 97 93 89 86 82 80 79 79 79 79 80 82 84 89
275 254 238 225 216 210 205 201 196 183 150 121 111 106 104 102 99 99 100 101 99 96 93 92 90 90 91 91 88 86 86 86 88 89 88 88 90 93 94 92 91 94 100 106 112 116 120 123 126 127 123 117 111 106 102 98 93 90 86 83 80 78 78 78 78 79 80 82 87
281 259 241 227 216 208 203 197 185 154 126 114 109 106 103 102 100 98 98 99 99 98 96 94 92 91 92 92 89 86 83 83 84 85 86 85 87 90 92 91 89 92 97 103 108 111 115 117 119 120 119 115 111 107 104 100 95 91 88 85 83 80 78 78 78 78 80 82 86
287 267 249 233 219 208 200 191 163 133 119 115 110 107 104 102 101 100 99 99 99 98 96 94 92 92 92 92 90 86 81 80 80 82 83 83 84 87 88 88 88 90 94 99 104 107 109 112 113 114 114 112 109 107 104 101 97 92 89 87 85 82 79 78 78 78 78 80 83
304 277 256 237 220 206 184 157 135 123 117 115 111 109 106 104 103 102 100 99 98 97 95 93 92 92 92 91 90 86 82 79 78 79 80 81 82 83 84 85 86 88 91 96 100 103 105 107 108 109 110 109 107 105 104 102 97 93 90 89 87 85 82 79 78 77 76 77 79
Height
639 641 643 645 646 648 650 651 652 654 655 656 657 659 661 663 665 666 668 670 671 673 674 676 677 679 680 682 683 685 687 689 690 691 693 695 697 699 701 703 705 706 708 709 711 713 714 716 717 719 721 722 724 725 727 728 730 731 732 734 736 737 739 740 741 742 743 744 746
637 639 641 643 645 646 648 650 651 652 653 655 656 657 659 661 663 665 666 668 670 671 673 674 676 677 679 680 682 683 685 687 689 690 691 693 695 698 700 702 703 705 706 708 710 711 713 715 716 718 719 721 722 724 725 727 728 730 731 733 734 735 737 738 739 740 742 743 745
635 637 639 641 643 645 646 648 650 651 652 653 654 656 657 659 661 663 665 666 668 670 671 673 674 676 677 679 680 682 684 685 687 689 690 692 695 697 699 700 702 703 705 706 708 710 711 713 715 716 717 719 720 722 724 725 727 728 730 731 732 734 735 736 738 739 741 742 744
633 635 637 639 641 643 645 646 648 649 650 652 653 655 656 658 659 661 663 665 667 668 670 671 672 674 676 678 679 680 682 684 686 687 689 691 693 695 697 699 700 701 703 705 706 708 710 712 713 715 716 717 719 720 722 724 725 727 728 729 731 732 733 735 736 738 740 741 743
631 633 635 637 639 640 642 644 646 648 649 650 652 653 655 656 658 660 661 663 665 666 668 669 671 672 674 676 677 679 681 683 685 686 688 690 692 694 695 697 699 700 702 703 705 706 709 710 712 713 715 716 718 719 720 722 724 725 726 728 729 730 732 733 735 736 738 740 741
629 631 633 635 637 639 641 643 644 646 647 649 650 652 653 655 656 658 660 661 663 665 666 668 670 671 672 674 675 677 679 681 683 685 686 688 690 692 694 696 697 699 700 701 703 705 707 709 710 712 713 715 716 718 719 721 722 724 725 726 728 729 730 732 733 735 737 739 740
628 629 631 633 635 637 639 641 643 644 646 647 649 650 651 653 655 656 658 660 662 664 665 667 668 670 671 673 674 675 677 679 681 683 685 686 688 690 692 694 696 697 699 700 701 703 705 707 709 710 712 714 715 717 718 720 720 722 724 725 726 728 729 731 732 734 735 737 739
627 628 630 632 634 635 637 639 641 643 644 646 647 648 650 651 653 655 657 659 661 662 664 666 667 669 670 671 672 674 676 678 679 681 683 685 687 689 691 693 694 695 697 698 700 701 703 705 707 709 710 712 714 715 716 718 719 720 722 724 725 726 728 729 731 732 734 735 737
625 627 628 630 632 634 636 638 639 641 642 644 645 647 648 650 652 654 656 658 659 661 663 665 666 668 669 670 671 673 674 676 678 680 682 684 685 687 690 691 693 694 695 697 698 700 702 704 705 707 709 710 711 713 715 716 718 719 720 722 724 725 726 728 729 730 732 733 735
624 625 627 629 631 633 635 636 638 639 641 642 644 645 647 649 650 652 654 656 658 660 662 663 665 667 668 669 670 671 673 675 676 678 680 682 684 686 688 690 691 692 694 695 697 698 700 702 704 705 707 708 710 711 713 715 716 718 719 720 722 723 725 726 727 729 730 731 732
622 624 625 627 629 632 634 635 637 639 640 641 643 645 646 648 650 651 653 655 657 659 660 662 664 666 667 668 669 670 672 673 675 677 679 680 682 684 686 688 690 691 692 694 695 697 699 700 702 704 705 706 708 710 712 713 715 716 718 719 720 722 723 724 725 727 728 729 730
621 622 624 626 628 630 632 634 636 637 639 640 641 643 645 647 649 651 652 654 655 657 659 661 663 665 666 667 668 669 670 672 673 675 677 679 681 683 685 686 688 690 691 692 694 695 697 698 700 701 703 705 707 709 710 712 714 715 716 718 719 720 721 722 724 725 726 727 729
619 620 622 624 627 629 631 633 634 636 637 639 640 642 644 647 648 650 651 653 654 656 658 660 662 664 665 666 667 668 669 671 672 674 675 677 679 681 683 685 687 688 689 691 692 694 695 696 698 700 702 704 706 707 709 710 712 713 715 716 718 719 720 721 722 723 725 726 727
618 619 620 623 625 628 630 632 634 635 636 637 639 641 643 646 648 649 650 651 653 655 656 658 660 662 664 665 666 667 668 670 671 672 674 676 677 679 681 684 685 686 688 689 690 692 693 695 696 698 700 702 704 706 707 709 710 712 713 715 716 717 718 719 720 722 723 724 725
616 617 619 621 624 626 629 631 633 634 635 637 638 639 642 645 646 648 649 650 651 653 655 657 660 661 663 664 665 666 667 668 670 671 673 674 676 678 680 682 683 685 686 687 689 690 691 693 695 697 699 701 703 705 706 708 709 710 711 713 714 715 716 718 719 720 721 722 724
615 616 618 620 623 625 628 630 632 634 635 636 637 639 641 644 645 646 647 648 649 651 654 656 658 660 661 663 664 665 666 667 668 670 671 673 675 677 678 680 681 683 684 685 687 689 690 692 694 696 698 700 701 703 705 706 707 709 710 711 712 713 715 716 717 718 720 721 722
615 616 618 620 622 624 627 629 632 634 634 635 637 638 640 642 644 645 645 646 648 651 654 655 657 658 660 662 663 664 665 666 667 668 670 671 673 675 677 678 680 681 682 684 685 688 690 692 694 695 697 699 700 702 703 705 706 707 708 710 710 712 713 714 715 717 718 720 721
616 616 617 619 620 623 625 628 631 633 634 635 637 638 639 641 643 643 644 645 647 650 653 654 655 657 659 660 661 663 664 665 666 667 669 670 672 674 675 677 678 680 681 683 685 687 689 691 693 695 696 698 700 701 702 703 705 705 707 708 709 710 712 713 714 716 717 718 720
617 616 617 618 619 622 624 627 630 632 634 635 637 638 639 640 641 642 643 644 647 650 651 652 654 655 657 659 660 661 663 664 665 667 668 670 672 673 675 676 677 679 681 682 684 686 688 690 692 694 695 697 699 700 701 702 703 705 705 707 708 710 711 712 713 715 716 717 718
618 616 617 618 619 621 624 626 629 632 634 635 637 638 638 639 639 640 642 644 647 649 650 651 653 655 656 658 659 660 662 663 664 666 667 669 671 672 673 675 676 678 680 682 684 685 687 689 691 692 694 696 697 699 700 701 702 703 705 706 707 709 710 711 712 714 715 715 717
617 616 616 617 619 621 623 626 628 631 633 635 636 637 637 638 638 639 641 644 646 648 649 650 651 653 655 656 658 660 661 662 663 665 666 668 669 671 672 674 675 677 679 681 683 684 686 688 689 691 693 694 696 697 699 700 701 702 704 705 706 708 709 710 711 712 714 715 716
618 616 616 617 619 621 623 625 628 630 632 634 635 636 636 637 637 639 641 643 645 646 647 649 650 652 654 655 657 658 660 661 662 664 665 666 668 670 671 673 675 676 678 680 681 683 685 686 688 690 691 693 695 696 697 699 700 701 703 704 705 707 708 709 710 711 713 714 715
618 616 616 617 618 620 622 624 627 629 631 633 634 635 635 636 637 638 640 642 644 645 646 648 650 651 653 654 656 657 658 660 661 663 665 666 667 669 671 672 674 675 677 679 680 681 683 685 687 689 690 692 693 695 696 698 699 700 702 703 705 706 707 708 709 710 711 713 714
616 614 614 615 617 619 621 624 627 629 630 631 632 633 634 635 636 637 639 640 642 643 645 647 649 650 652 653 655 656 657 659 661 663 664 665 667 669 670 672 673 675 676 678 679 680 682 684 686 688 690 691 693 694 695 697 698 700 701 703 704 705 706 707 708 709 710 711 712
616 614 614 614 616 618 620 623 625 627 628 629 631 632 633 634 635 636 638 639 640 641 643 645 648 650 651 652 654 655 656 658 660 662 664 665 666 668 670 671 673 675 675 677 678 680 681 683 685 687 689 690 692 694 695 696 698 699 701 702 703 704 705 706 707 708 709 710 711
617 615 614 614 615 617 619 622 624 625 627 628 629 630 631 632 634 635 636 638 638 639 642 644 647 649 650 651 653 654 656 658 660 662 663 664 665 667 670 671 672 674 675 676 678 680 681 683 685 686 688 690 691 693 695 696 697 699 700 701 702 704 705 705 706 707 708 709 710
619 617 615 615 615 616 618 620 622 624 625 627 628 629 630 631 633 634 635 636 637 638 640 643 645 647 649 650 651 654 656 659 660 661 662 663 665 667 670 671 672 673 675 676 678 680 681 683 684 686 687 689 691 693 694 696 697 698 700 700 701 702 703 704 705 705 706 707 709
621 620 618 617 616 616 617 619 621 623 624 626 627 628 629 630 632 634 634 635 635 637 639 641 644 646 647 649 651 654 657 659 660 660 661 663 665 667 669 671 672 673 675 676 678 679 681 682 684 685 687 689 691 692 694 695 697 698 699 700 701 702 702 703 703 704 705 706 708
622 621 619 617 615 614 616 617 619 621 623 625 626 627 628 630 632 633 633 633 634 635 638 640 642 644 646 649 651 655 657 658 659 660 662 664 666 668 670 671 672 674 675 676 678 679 681 682 684 685 687 689 691 693 695 696 697 698 700 701 702 702 703 703 703 704 705 705 706
623 621 619 616 614 613 614 616 618 620 622 624 625 626 628 629 631 631 631 632 633 634 636 638 640 643 646 649 652 655 657 658 659 660 662 665 666 668 670 671 672 673 675 676 678 679 680 682 684 685 687 689 691 693 694 695 695 697 698 699 699 699 699 700 702 704 705 705 706
621 619 617 615 613 612 613 615 617 619 620 622 624 625 627 628 629 630 630 631 632 634 635 637 640 643 647 650 653 655 656 658 659 661 663 665 667 668 669 669 671 672 674 676 677 679 680 681 682 684 685 687 688 689 691 692 694 695 696 697 698 699 700 701 701 702 703 704 705
620 618 616 614 612 611 612 614 616 618 619 621 623 624 626 627 628 628 629 630 631 633 634 637 640 644 648 651 654 655 657 659 660 662 663 664 665 666 667 669 670 672 674 675 676 677 678 679 681 682 684 685 687 690 691 693 694 695 696 698 699 700 700 701 702 703 703 704 705
618 617 615 614 612 611 612 614 616 618 619 621 623 624 625 626 627 628 629 630 631 633 635 638 641 645 649 651 654 655 657 658 658 659 661 663 665 666 668 669 671 673 674 674 675 676 678 679 680 682 684 685 687 689 691 693 695 696 697 699 700 700 701 702 703 703 704 705 705
616 616 615 614 613 612 613 614 616 618 619 621 623 624 625 626 627 628 629 630 632 634 637 639 643 646 649 651 653 655 656 658 660 660 662 663 665 667 668 670 672 674 675 675 675 676 678 679 680 682 683 685 687 690 692 694 695 697 698 700 701 702 702 703 704 705 705 706 706
616 615 614 614 614 614 614 615 617 618 620 621 623 624 626 627 628 628 629 629 631 634 637 640 643 646 649 652 655 656 658 659 660 662 663 665 666 668 670 672 675 676 676 675 676 677 678 679 681 682 684 685 688 691 693 695 696 698 700 701 702 703 704 705 705 706 707 707 708
614 614 614 613 614 614 615 616 617 619 620 622 623 625 626 627 629 629 629 630 632 635 639 643 646 648 651 655 657 658 659 660 662 664 665 666 667 669 672 675 677 678 678 677 677 678 679 680 681 682 684 686 689 692 694 696 698 700 701 702 704 705 706 707 707 708 709 710 710
613 613 613 613 613 614 615 616 617 619 621 623 624 625 626 627 629 631 631 632 635 639 643 646 648 650 653 655 658 660 661 662 664 666 668 669 670 671 674 676 679 680 680 680 679 679 680 681 682 683 685 687 690 693 695 697 700 701 703 704 706 707 708 709 710 710 711 712 713
611 611 611 611 612 613 614 615 617 619 622 624 625 625 626 628 630 632 633 634 637 641 645 649 651 653 655 656 659 661 663 665 666 668 670 672 673 674 675 678 680 681 682 681 681 681 682 683 683 684 685 688 691 693 696 698 701 703 705 706 708 710 711 712 713 714 715 715 716
610 611 611 611 611 612 613 614 617 620 623 624 624 625 627 629 632 634 635 637 640 644 648 652 654 655 656 657 660 663 666 668 670 671 673 675 676 676 677 679 681 683 684 684 683 683 684 685 685 686 687 689 692 694 697 699 702 704 706 708 710 712 714 715 715 717 718 719 719
609 610 611 611 611 611 612 614 618 620 622 623 624 626 628 630 633 635 637 640 643 647 650 653 656 657 658 659 661 665 669 671 672 674 675 677 678 678 679 680 683 685 685 686 686 686 686 687 687 688 689 691 693 695 698 700 703 705 708 710 712 714 716 717 719 720 721 722 722
607 608 610 612 611 611 612 615 618 620 621 622 624 626 629 631 633 636 639 642 646 649 652 655 657 659 660 661 664 668 671 673 675 677 677 678 679 680 681 683 685 686 687 688 688 688 689 689 690 690 691 693 695 697 699 701 704 707 710 712 714 716 718 720 721 722 723 725 725